W2OBX Weather Reports


time (UTC)temp
C
wind
direction
speed
KPH
gust
KPH
rain 1hr
cm
rain 24hr
cm
rain mn
cm
humidity
%
barometer
mb
20260505152420 21 174 9.7 12.9 0.00 0.00 0.00 51 1015.6
20260505151920 21 103 0.0 4.8 0.00 0.00 0.00 54 1015.6
20260505151416 21 122 1.6 1.6 0.00 0.00 0.00 60 1015.7
20260505150914 20 122 1.6 3.2 0.00 0.00 0.00 56 1015.8
20260505150410 20 124 1.6 1.6 0.00 0.00 0.00 59 1015.5
20260505140335 17 108 0.0 0.0 0.00 0.00 0.00 69 1016.1
20260505130258 12 106 0.0 1.6 0.00 0.00 0.00 96 1015.8
20260505124748 11 107 0.0 0.0 0.00 0.00 0.00 97 1015.6
20260505124245 11 107 0.0 0.0 0.00 0.00 0.00 97 1015.6
20260505123741 11 106 0.0 0.0 0.00 0.00 0.00 97 1015.4
20260505123238 11 106 0.0 0.0 0.00 0.00 0.00 97 1015.6
20260505122734 10 106 0.0 0.0 0.00 0.00 0.00 97 1015.4
20260505122231 10 106 0.0 0.0 0.00 0.00 0.00 97 1015.5
20260505121728 10 105 0.0 0.0 0.00 0.00 0.00 97 1015.5
20260505121225 10 105 0.0 0.0 0.00 0.00 0.00 97 1015.3
20260505120721 10 104 0.0 0.0 0.00 0.00 0.00 97 1015.5
20260505120217 10 104 0.0 0.0 0.00 0.00 0.00 97 1015.4
20260505115716 9 102 0.0 0.0 0.00 0.00 0.00 97 1015.5
20260505115214 9 102 0.0 0.0 0.00 0.00 0.00 97 1015.5
20260505114711 8 101 0.0 0.0 0.00 0.00 0.00 97 1015.5
20260505114207 8 101 0.0 0.0 0.00 0.00 0.00 97 1015.4
20260505113703 8 100 1.6 1.6 0.00 0.00 0.00 97 1015.2
20260505113200 8 100 0.0 0.0 0.00 0.00 0.00 97 1015.1
20260505112656 8 101 0.0 0.0 0.00 0.00 0.00 96 1015.1
20260505112155 8 101 0.0 1.6 0.00 0.00 0.00 96 1014.9
20260505111654 8 110 0.0 1.6 0.00 0.00 0.00 96 1014.7
20260505111150 8 114 0.0 0.0 0.00 0.00 0.00 96 1014.6
20260505110646 8 115 0.0 0.0 0.00 0.00 0.00 96 1014.6
20260505110144 8 114 0.0 0.0 0.00 0.00 0.00 96 1014.6
20260505102119 8 100 0.0 0.0 0.00 0.00 0.00 96 1014.7
20260505101618 8 100 0.0 0.0 0.00 0.00 0.00 96 1014.6
20260505101114 8 100 0.0 0.0 0.00 0.00 0.00 95 1014.7
20260505100610 8 100 1.6 1.6 0.00 0.00 0.00 95 1014.9
20260505100107 8 100 0.0 0.0 0.00 0.00 0.00 95 1014.9
20260505095603 8 100 0.0 0.0 0.00 0.00 0.00 95 1014.8
20260505095100 8 100 0.0 0.0 0.00 0.00 0.00 95 1014.7
20260505094556 8 100 0.0 0.0 0.00 0.00 0.00 95 1014.9
20260505094053 8 101 0.0 0.0 0.00 0.00 0.00 95 1014.8
20260505093549 9 101 0.0 0.0 0.00 0.00 0.00 95 1014.7
20260505093047 9 101 0.0 0.0 0.00 0.00 0.00 95 1014.9
20260505092544 9 101 0.0 0.0 0.00 0.00 0.00 95 1014.9
20260505092042 9 101 0.0 0.0 0.00 0.00 0.00 95 1015.0
20260505091539 9 101 0.0 0.0 0.00 0.00 0.00 95 1014.9
20260505091037 9 101 0.0 0.0 0.00 0.00 0.00 95 1015.1
20260505090535 9 101 0.0 0.0 0.00 0.00 0.00 95 1014.8
20260505090032 9 101 0.0 0.0 0.00 0.00 0.00 94 1015.0
20260505085530 9 101 1.6 1.6 0.00 0.00 0.00 94 1014.8
20260505085028 9 101 1.6 1.6 0.00 0.00 0.00 94 1014.7
20260505084526 9 101 1.6 1.6 0.00 0.00 0.00 94 1014.7
20260505084024 9 101 0.0 1.6 0.00 0.00 0.00 94 1014.5
20260505083521 9 101 0.0 1.6 0.00 0.00 0.00 94 1014.5
20260505083017 9 101 0.0 0.0 0.00 0.00 0.00 93 1014.4
20260505082513 9 101 0.0 1.6 0.00 0.00 0.00 93 1014.3
20260505082010 9 101 0.0 1.6 0.00 0.00 0.00 93 1014.1
20260505081506 9 101 0.0 1.6 0.00 0.00 0.00 92 1014.2
20260505081003 10 102 0.0 0.0 0.00 0.00 0.00 92 1014.1
20260505080459 10 102 1.6 1.6 0.00 0.00 0.00 92 1014.1
20260505075955 10 102 0.0 0.0 0.00 0.00 0.00 92 1014.2
20260505075452 10 102 0.0 0.0 0.00 0.00 0.00 92 1014.2
20260505074949 10 102 0.0 0.0 0.00 0.00 0.00 92 1014.3
20260505074447 10 102 0.0 1.6 0.00 0.00 0.00 92 1014.3
20260505073944 10 102 0.0 0.0 0.00 0.00 0.00 92 1014.1
20260505073441 10 102 0.0 0.0 0.00 0.00 0.00 92 1014.2
20260505072938 10 102 0.0 1.6 0.00 0.00 0.00 92 1014.1
20260505072434 10 116 1.6 1.6 0.00 0.00 0.00 92 1014.1
20260505071931 10 117 0.0 0.0 0.00 0.00 0.00 92 1014.0
20260505071427 10 117 0.0 0.0 0.00 0.00 0.00 92 1014.0
20260505070925 10 117 0.0 0.0 0.00 0.00 0.00 92 1014.1
20260505070421 10 117 0.0 0.0 0.00 0.00 0.00 92 1014.1
20260505065917 10 117 0.0 0.0 0.00 0.00 0.00 92 1014.1
20260505065413 10 117 0.0 1.6 0.00 0.00 0.00 92 1014.0
20260505064910 10 113 1.6 3.2 0.00 0.00 0.00 91 1014.1
20260505064408 10 107 0.0 0.0 0.00 0.00 0.00 91 1014.0
20260505063906 11 107 0.0 0.0 0.00 0.00 0.00 91 1014.1
20260505063402 11 108 0.0 0.0 0.00 0.00 0.00 91 1014.0
20260505062859 11 108 0.0 0.0 0.00 0.00 0.00 91 1014.1
20260505062356 11 108 0.0 0.0 0.00 0.00 0.00 90 1014.1
20260505061852 11 108 0.0 0.0 0.00 0.00 0.00 90 1013.8
20260505061351 11 108 0.0 0.0 0.00 0.00 0.00 89 1014.1
20260505060848 11 108 0.0 1.6 0.00 0.00 0.00 89 1013.9
20260505060344 11 108 0.0 0.0 0.00 0.00 0.00 90 1013.9
20260505055841 11 108 0.0 0.0 0.00 0.00 0.00 89 1013.8
20260505055336 11 108 0.0 0.0 0.00 0.00 0.00 89 1013.8
20260505054834 11 108 0.0 1.6 0.00 0.00 0.00 89 1013.7
20260505054331 12 109 0.0 1.6 0.00 0.00 0.00 89 1013.7
20260505053829 12 109 0.0 0.0 0.00 0.00 0.00 88 1013.6
20260505053326 12 109 0.0 0.0 0.00 0.00 0.00 88 1013.7
20260505052823 12 109 0.0 0.0 0.00 0.00 0.00 88 1013.9
20260505052320 12 109 0.0 0.0 0.00 0.00 0.00 87 1013.8
20260505051817 12 109 0.0 0.0 0.00 0.00 0.00 86 1013.8
20260505051314 12 109 1.6 1.6 0.00 0.00 0.00 86 1013.5
20260505050812 12 109 0.0 0.0 0.00 0.00 0.00 85 1013.8
20260505050311 12 109 0.0 0.0 0.00 0.00 0.00 85 1013.9
20260505041740 14 110 0.0 0.0 0.00 0.00 0.00 83 1013.5
20260505041237 14 110 0.0 0.0 0.00 0.00 0.00 82 1013.5
20260505040735 14 110 0.0 0.0 0.00 0.00 0.00 82 1013.4
20260505040232 14 110 0.0 0.0 0.00 0.00 0.00 80 1013.4
20260505035729 15 110 0.0 0.0 0.00 0.00 0.00 80 1013.4
20260505035225 15 110 0.0 0.0 0.00 0.00 0.00 79 1013.8
20260505034722 15 110 0.0 0.0 0.00 0.00 0.00 78 1013.6
20260505034219 15 110 0.0 0.0 0.00 0.00 0.00 77 1013.7
20260505033715 15 110 0.0 0.0 0.00 0.00 0.00 79 1013.5
20260505033213 15 110 0.0 0.0 0.00 0.00 0.00 79 1013.6
20260505032711 15 110 0.0 0.0 0.00 0.00 0.00 78 1013.7
20260505032206 15 110 0.0 0.0 0.00 0.00 0.00 74 1013.7
20260505031704 15 110 0.0 0.0 0.00 0.00 0.00 74 1013.8
20260505031200 15 110 0.0 0.0 0.00 0.00 0.00 74 1014.0
20260505030657 15 110 0.0 0.0 0.00 0.00 0.00 73 1013.8
20260505030153 15 110 0.0 0.0 0.00 0.00 0.00 72 1013.9
20260505025649 15 110 0.0 0.0 0.00 0.00 0.00 71 1014.0
20260505025148 15 110 0.0 0.0 0.00 0.00 0.00 70 1013.9
20260505024645 16 110 0.0 0.0 0.00 0.00 0.00 71 1013.7
20260505024142 16 110 0.0 0.0 0.00 0.00 0.00 67 1013.8
20260505023640 16 110 0.0 0.0 0.00 0.00 0.00 67 1013.8
20260505023137 16 110 0.0 0.0 0.00 0.00 0.00 67 1013.9
20260505022634 16 110 0.0 0.0 0.00 0.00 0.00 65 1013.7
20260505022131 16 110 0.0 0.0 0.00 0.00 0.00 65 1013.7
20260505021628 16 110 0.0 0.0 0.00 0.00 0.00 64 1013.8
20260505021125 16 110 0.0 0.0 0.00 0.00 0.00 65 1013.7
20260505020620 17 110 0.0 0.0 0.00 0.00 0.00 65 1013.6
20260505020116 17 110 0.0 0.0 0.00 0.00 0.00 65 1013.6
20260505015614 17 110 0.0 1.6 0.00 0.00 0.00 64 1013.7
20260505015110 17 109 0.0 0.0 0.00 0.00 0.00 59 1013.7
20260505014607 17 109 0.0 1.6 0.00 0.00 0.00 59 1013.4
20260505014104 17 109 0.0 0.0 0.00 0.00 0.00 59 1013.5
20260505013601 17 109 0.0 0.0 0.00 0.00 0.00 59 1013.3
20260505013059 17 109 0.0 1.6 0.00 0.00 0.00 59 1013.2
20260505012556 18 109 0.0 1.6 0.00 0.00 0.00 57 1013.3
20260505012053 18 109 0.0 0.0 0.00 0.00 0.00 55 1013.2
20260505011549 18 109 0.0 0.0 0.00 0.00 0.00 55 1013.5
20260505011047 18 109 0.0 0.0 0.00 0.00 0.00 54 1013.2
20260505010542 18 109 0.0 0.0 0.00 0.00 0.00 55 1013.0
20260505010038 19 109 0.0 0.0 0.00 0.00 0.00 54 1013.2
20260505005535 19 109 0.0 0.0 0.00 0.00 0.00 52 1013.3
20260505005033 20 109 0.0 0.0 0.00 0.00 0.00 51 1013.1
20260505004529 20 109 0.0 0.0 0.00 0.00 0.00 51 1013.0
20260505004026 20 109 0.0 0.0 0.00 0.00 0.00 50 1013.1
20260505003523 20 109 0.0 0.0 0.00 0.00 0.00 48 1013.1
20260505003021 20 109 0.0 0.0 0.00 0.00 0.00 47 1013.1
20260505002520 21 109 0.0 0.0 0.00 0.00 0.00 46 1013.2
20260505002015 21 109 0.0 0.0 0.00 0.00 0.00 45 1013.0
20260505001511 21 109 0.0 0.0 0.00 0.00 0.00 45 1012.7
20260505001009 21 109 0.0 0.0 0.00 0.00 0.00 45 1013.0
20260505000506 21 109 0.0 0.0 0.00 0.00 0.00 45 1013.0
20260505000003 21 109 0.0 0.0 0.00 0.00 0.00 45 1013.0
20260504235500 21 109 0.0 0.0 0.00 0.00 0.00 44 1012.9
20260504234956 21 109 0.0 0.0 0.00 0.00 0.00 44 1012.7
20260504234454 22 109 0.0 0.0 0.00 0.00 0.00 44 1012.6
20260504233950 22 109 0.0 0.0 0.00 0.00 0.00 45 1012.6
20260504233446 22 109 0.0 0.0 0.00 0.00 0.00 45 1012.9
20260504232943 22 108 0.0 0.0 0.00 0.00 0.00 46 1012.7
20260504232440 22 109 0.0 0.0 0.00 0.00 0.00 46 1012.9
20260504231938 22 109 0.0 1.6 0.00 0.00 0.00 47 1012.7
20260504231433 22 109 0.0 1.6 0.00 0.00 0.00 47 1012.6
20260504230930 22 113 0.0 1.6 0.00 0.00 0.00 46 1012.7
20260504230427 22 113 0.0 0.0 0.00 0.00 0.00 46 1012.5
20260504225926 23 113 0.0 1.6 0.00 0.00 0.00 46 1012.6
20260504225422 23 108 1.6 1.6 0.00 0.00 0.00 46 1012.6
20260504224920 23 108 0.0 1.6 0.00 0.00 0.00 47 1012.6
20260504224416 23 117 0.0 0.0 0.00 0.00 0.00 45 1012.7
20260504223913 23 108 0.0 1.6 0.00 0.00 0.00 44 1012.6
20260504223408 23 124 1.6 1.6 0.00 0.00 0.00 44 1012.9
20260504222905 23 113 0.0 1.6 0.00 0.00 0.00 44 1012.9
20260504222402 23 109 1.6 1.6 0.00 0.00 0.00 43 1013.0
20260504221900 24 110 0.0 1.6 0.00 0.00 0.00 43 1013.0
20260504221356 24 113 0.0 1.6 0.00 0.00 0.00 43 1013.0
20260504220854 24 106 0.0 1.6 0.00 0.00 0.00 42 1012.6
20260504220350 24 114 0.0 3.2 0.00 0.00 0.00 41 1012.7
20260504215848 24 115 0.0 1.6 0.00 0.00 0.00 40 1012.7
20260504215344 24 122 1.6 4.8 0.00 0.00 0.00 39 1012.9
20260504214840 25 182 4.8 8.0 0.00 0.00 0.00 42 1012.7
20260504214337 25 105 1.6 1.6 0.00 0.00 0.00 39 1012.9
20260504213834 25 103 1.6 3.2 0.00 0.00 0.00 40 1012.7
20260504213330 25 142 3.2 8.0 0.00 0.00 0.00 41 1012.9
20260504212827 25 158 4.8 8.0 0.00 0.00 0.00 41 1012.7
20260504212323 25 115 3.2 8.0 0.00 0.00 0.00 42 1013.0
20260504211821 25 118 3.2 4.8 0.00 0.00 0.00 37 1012.6
20260504211317 25 113 0.0 1.6 0.00 0.00 0.00 39 1012.7
20260504210815 25 116 1.6 3.2 0.00 0.00 0.00 39 1012.9
20260504210312 25 115 0.0 3.2 0.00 0.00 0.00 39 1013.0
20260504205809 26 110 0.0 1.6 0.00 0.00 0.00 40 1013.1
20260504205306 25 113 0.0 1.6 0.00 0.00 0.00 39 1013.1
20260504204804 25 128 1.6 8.0 0.00 0.00 0.00 44 1013.2
20260504204303 25 135 3.2 4.8 0.00 0.00 0.00 39 1013.2
20260504203802 25 103 1.6 3.2 0.00 0.00 0.00 38 1013.1
20260504203259 25 117 1.6 3.2 0.00 0.00 0.00 40 1013.2
20260504202758 25 115 1.6 4.8 0.00 0.00 0.00 43 1013.3
20260504202256 25 86 3.2 4.8 0.00 0.00 0.00 42 1013.3
20260504201753 25 118 1.6 4.8 0.00 0.00 0.00 42 1013.6
20260504201250 25 126 3.2 8.0 0.00 0.00 0.00 46 1013.4
20260504200748 25 176 4.8 9.7 0.00 0.00 0.00 42 1013.5
20260504200243 25 114 1.6 1.6 0.00 0.00 0.00 40 1013.4
20260504195740 25 122 1.6 8.0 0.00 0.00 0.00 40 1013.7
20260504195236 25 165 4.8 9.7 0.00 0.00 0.00 43 1013.8
20260504194734 26 166 6.4 9.7 0.00 0.00 0.00 43 1013.8
20260504194229 26 107 1.6 8.0 0.00 0.00 0.00 43 1013.9
20260504193726 26 124 0.0 3.2 0.00 0.00 0.00 41 1014.0
20260504193224 25 133 1.6 3.2 0.00 0.00 0.00 43 1014.1
20260504192722 25 142 3.2 3.2 0.00 0.00 0.00 46 1014.1
20260504192220 25 132 3.2 3.2 0.00 0.00 0.00 46 1014.3
20260504191718 25 94 1.6 3.2 0.00 0.00 0.00 45 1014.3
20260504191215 25 119 0.0 3.2 0.00 0.00 0.00 45 1014.7
20260504190710 25 129 4.8 4.8 0.00 0.00 0.00 43 1014.5
20260504190206 25 100 1.6 3.2 0.00 0.00 0.00 42 1014.5
20260504185703 25 152 4.8 4.8 0.00 0.00 0.00 46 1014.6
20260504185159 24 154 3.2 8.0 0.00 0.00 0.00 46 1014.9
20260504184656 24 171 6.4 11.3 0.00 0.00 0.00 46 1014.9
20260504184150 24 120 3.2 4.8 0.00 0.00 0.00 44 1014.9
20260504183648 23 160 8.0 9.7 0.00 0.00 0.00 48 1015.1
20260504183145 23 138 1.6 4.8 0.00 0.00 0.00 46 1015.0
20260504182643 23 147 4.8 11.3 0.00 0.00 0.00 45 1015.2
20260504182140 23 154 4.8 9.7 0.00 0.00 0.00 50 1015.3
20260504181638 23 190 8.0 11.3 0.00 0.00 0.00 47 1015.4
20260504181136 23 153 6.4 8.0 0.00 0.00 0.00 47 1015.2
20260504180634 23 164 8.0 11.3 0.00 0.00 0.00 48 1015.3
20260504180132 23 165 4.8 9.7 0.00 0.00 0.00 47 1015.3
20260504175629 23 170 8.0 8.0 0.00 0.00 0.00 46 1015.4
20260504175126 22 141 4.8 9.7 0.00 0.00 0.00 47 1015.6
20260504174624 22 134 4.8 9.7 0.00 0.00 0.00 46 1015.6
20260504174120 22 165 4.8 9.7 0.00 0.00 0.00 48 1015.6
20260504173618 22 140 4.8 8.0 0.00 0.00 0.00 47 1015.7
20260504173115 23 152 4.8 8.0 0.00 0.00 0.00 49 1015.9
20260504172611 22 138 3.2 8.0 0.00 0.00 0.00 49 1016.1
20260504172108 22 178 6.4 9.7 0.00 0.00 0.00 48 1015.8
20260504171604 22 167 1.6 4.8 0.00 0.00 0.00 48 1015.9
20260504171102 22 84 3.2 3.2 0.00 0.00 0.00 49 1016.1
20260504170557 22 176 6.4 9.7 0.00 0.00 0.00 47 1016.2